TimeEST,TemperatureF,Dew PointF,Humidity,Sea Level PressureIn,VisibilityMPH,Wind Direction,Wind SpeedMPH,Gust SpeedMPH,PrecipitationIn,Events,Conditions,WindDirDegrees,DateUTC
12:28 AM,55.4,53.6,94,29.98,10.0,West,9.2,-,0.01,,Overcast,280,2012-01-18 05:28:00
12:53 AM,53.1,48.9,86,29.97,10.0,NW,11.5,-,0.02,Rain,Light Rain,310,2012-01-18 05:53:00
1:36 AM,51.8,46.4,82,29.98,10.0,WNW,11.5,-,0.00,,Overcast,300,2012-01-18 06:36:00
1:53 AM,51.1,46.0,83,29.97,10.0,NW,10.4,-,0.00,,Overcast,310,2012-01-18 06:53:00
2:53 AM,48.0,37.0,66,29.98,10.0,NW,8.1,-,N/A,,Clear,310,2012-01-18 07:53:00
3:53 AM,44.1,30.9,60,29.99,10.0,NW,12.7,19.6,N/A,,Clear,310,2012-01-18 08:53:00
4:53 AM,41.0,32.0,70,30.01,10.0,West,9.2,-,N/A,,Clear,280,2012-01-18 09:53:00
5:53 AM,37.9,30.9,76,30.03,10.0,WNW,10.4,-,N/A,,Clear,300,2012-01-18 10:53:00
6:53 AM,36.0,30.9,82,30.05,10.0,West,6.9,-,N/A,,Clear,280,2012-01-18 11:53:00
7:53 AM,34.0,30.0,85,30.07,9.0,West,11.5,-,N/A,,Clear,280,2012-01-18 12:53:00
8:53 AM,35.1,30.0,82,30.09,8.0,WNW,8.1,-,N/A,,Clear,300,2012-01-18 13:53:00
9:53 AM,37.0,30.0,76,30.10,10.0,WNW,11.5,-,N/A,,Clear,300,2012-01-18 14:53:00
10:53 AM,39.9,28.9,65,30.10,10.0,NW,11.5,-,N/A,,Clear,320,2012-01-18 15:53:00
11:53 AM,42.1,30.0,62,30.09,10.0,West,9.2,-,N/A,,Clear,270,2012-01-18 16:53:00
12:53 PM,46.0,28.9,51,30.06,10.0,WNW,10.4,-,N/A,,Clear,290,2012-01-18 17:53:00
1:53 PM,46.9,30.0,52,30.04,10.0,West,12.7,-,N/A,,Clear,270,2012-01-18 18:53:00
2:53 PM,46.9,26.1,44,30.04,10.0,West,10.4,21.9,N/A,,Clear,280,2012-01-18 19:53:00
3:53 PM,46.9,19.9,34,30.06,10.0,WNW,13.8,19.6,N/A,,Clear,290,2012-01-18 20:53:00
4:53 PM,45.0,26.1,48,30.06,10.0,West,9.2,-,N/A,,Clear,270,2012-01-18 21:53:00
5:53 PM,42.1,27.0,55,30.07,10.0,West,10.4,-,N/A,,Clear,260,2012-01-18 22:53:00
6:53 PM,39.0,25.0,57,30.08,10.0,West,10.4,-,N/A,,Clear,280,2012-01-18 23:53:00
7:53 PM,36.0,24.1,62,30.11,10.0,West,9.2,-,N/A,,Clear,280,2012-01-19 00:53:00
8:53 PM,34.0,24.1,67,30.10,10.0,WNW,6.9,-,N/A,,Clear,290,2012-01-19 01:53:00
9:53 PM,33.1,24.1,70,30.09,10.0,West,5.8,-,N/A,,Clear,280,2012-01-19 02:53:00
10:53 PM,32.0,24.1,73,30.10,10.0,WNW,5.8,-,N/A,,Clear,290,2012-01-19 03:53:00
11:53 PM,32.0,24.1,73,30.10,10.0,WNW,5.8,-,N/A,,Mostly Cloudy,290,2012-01-19 04:53:00